This is the latest recevied weather packets stored in our database for station/object KC5DAQ-27. If no packets are shown the sender has not sent any weather packets the latest 10 day(s).
| Time | Temp. | Humidity | Pressure | Rain* | Wind** | Luminosity | Snow |
|---|---|---|---|---|---|---|---|
| 1777991432 | 23.89° C | 92% | 1000.7 hPa | 0 mm | - | 130 W/m² | - |
| 1777991371 | 23.89° C | 92% | 1000.7 hPa | 0 mm | - | 150 W/m² | - |
| 1777991311 | 23.89° C | 92% | 1000.7 hPa | 0 mm | - | 164 W/m² | - |
| 1777991252 | 23.89° C | 92% | 1000.7 hPa | 0 mm | - | 141 W/m² | - |
| 1777991191 | 23.89° C | 92% | 1000.7 hPa | 0 mm | - | 137 W/m² | - |
| 1777991131 | 23.89° C | 92% | 1000.7 hPa | 0 mm | - | 151 W/m² | - |
| 1777991071 | 23.89° C | 92% | 1000.8 hPa | 0 mm | - | 153 W/m² | - |
| 1777991011 | 23.89° C | 92% | 1000.7 hPa | 0 mm | - | 165 W/m² | - |
| 1777990951 | 23.89° C | 93% | 1000.7 hPa | 0 mm | - | 172 W/m² | - |
| 1777990891 | 23.89° C | 93% | 1000.8 hPa | 0 mm | - | 164 W/m² | - |
| 1777990832 | 23.33° C | 93% | 1000.7 hPa | 0 mm | - | 134 W/m² | - |
| 1777990771 | 23.33° C | 93% | 1000.5 hPa | 0.25 mm | - | 130 W/m² | - |
| 1777990711 | 23.33° C | 93% | 1000.6 hPa | 0.25 mm | - | 120 W/m² | - |
| 1777990650 | 23.33° C | 93% | 1000.5 hPa | 0.25 mm | - | 114 W/m² | - |
| 1777990590 | 23.33° C | 93% | 1000.5 hPa | 0.25 mm | - | 139 W/m² | - |
| 1777990530 | 23.33° C | 93% | 1000.5 hPa | 0.25 mm | - | 121 W/m² | - |
| 1777990470 | 23.33° C | 93% | 1000.5 hPa | 0.25 mm | - | 151 W/m² | - |
| 1777990409 | 23.33° C | 93% | 1000.5 hPa | 0.25 mm | - | 153 W/m² | - |
| 1777990351 | 23.33° C | 93% | 1000.5 hPa | 0.25 mm | - | 150 W/m² | - |
| 1777990049 | 23.33° C | 93% | 1000.6 hPa | 0.25 mm | - | 157 W/m² | - |
| 1777989989 | 23.33° C | 94% | 1000.5 hPa | 0.25 mm | - | 160 W/m² | - |
| 1777989931 | 23.33° C | 93% | 1000.5 hPa | 0.25 mm | - | 164 W/m² | - |
| 1777989870 | 23.33° C | 93% | 1000.5 hPa | 0.25 mm | - | 164 W/m² | - |
| 1777989809 | 23.33° C | 93% | 1000.4 hPa | 0.25 mm | - | 171 W/m² | - |
| 1777989749 | 23.33° C | 93% | 1000.5 hPa | 0.25 mm | - | 165 W/m² | - |
* Rain latest hour (hover to see other rain measurements)
** Current wind speed in m/s (hover to see current wind gust speed)